Change the Weather History Date:

Monday, July 16, 2012

  Actual Average Record
Temperature  
Mean Temperature 79 °F -  
Max Temperature 89 °F 83 °F 101 °F (1936)
Min Temperature 69 °F 56 °F 41 °F (1984)
Cooling Degree Days 14    
Growing Degree Days 29 (Base 50)    
Moisture  
Dew Point 66 °F    
Average Humidity 64    
Maximum Humidity 89    
Minimum Humidity 43    
Precipitation  
Precipitation 0.00 in - - ()
Sea Level Pressure  
Sea Level Pressure 29.79 in    
Wind  
Wind Speed 5 mph (SW)    
Max Wind Speed 18 mph    
Max Gust Speed 25 mph    
Visibility 10 miles    
Events      
Averages and records for this station are not official NWS values.
T = Trace of Precipitation, MM = Missing Value Source: NWS Daily Summary

Daily Weather History Graph

Daily Weather History Graph

Search for Another Location

Airport or City:

Trip Planner

Search our weather history database for the weather conditions in past years. The results will help you decide how hot, cold, wet, or windy it might be!

Date:

Astronomy

Jul. 16, 2012 Rise Set
Actual Time 5:38 AM CDT 8:58 PM CDT
Civil Twilight 5:02 AM CDT 9:35 PM CDT
Nautical Twilight 4:14 AM CDT 10:23 PM CDT
Astronomical Twilight 3:13 AM CDT 11:23 PM CDT
Moon 3:23 AM CDT (7/16) 7:04 PM CDT (7/16)
Length of Visible Light 16h 33m
Length of Day
15h 19m
Waning Crescent, 6% of the Moon is Illuminated
Jul 16
Waning Crescent
Jul 18
New
Jul 26
First Quarter
Aug 1
Full
Aug 9
Last Quarter

Hourly Weather History & Observations

Time (CDT) Temp. Heat Index Dew Point Humidity Pressure Visibility Wind Dir Wind Speed Gust Speed Precip Events Conditions
12:16 AM 71.6 °F - 64.4 °F 78% 29.95 in 10.0 mi Calm Calm - N/A   Clear
12:36 AM 71.6 °F - 64.4 °F 78% 29.95 in 10.0 mi Calm Calm - N/A   Clear
12:56 AM 71.6 °F - 64.4 °F 78% 29.94 in 10.0 mi Calm Calm - N/A   Clear
1:16 AM 71.6 °F - 64.4 °F 78% 29.93 in 10.0 mi Calm Calm - N/A   Clear
1:36 AM 69.8 °F - 64.4 °F 83% 29.92 in 10.0 mi Calm Calm - N/A   Clear
1:56 AM 71.6 °F - 64.4 °F 78% 29.92 in 10.0 mi SSE 3.5 mph - N/A   Clear
2:16 AM 73.4 °F - 66.2 °F 78% 29.90 in 10.0 mi SSE 4.6 mph - N/A   Clear
2:36 AM 73.4 °F - 64.4 °F 73% 29.90 in 10.0 mi SSE 4.6 mph - N/A   Clear
2:56 AM 73.4 °F - 64.4 °F 73% 29.89 in 10.0 mi SSE 4.6 mph - N/A   Clear
3:16 AM 73.4 °F - 64.4 °F 73% 29.88 in 10.0 mi SSE 4.6 mph - N/A   Clear
3:36 AM 71.6 °F - 64.4 °F 78% 29.87 in 10.0 mi South 3.5 mph - N/A   Clear
3:56 AM 71.6 °F - 64.4 °F 78% 29.87 in 10.0 mi Calm Calm - N/A   Clear
4:16 AM 69.8 °F - 64.4 °F 83% 29.87 in 10.0 mi Calm Calm - N/A   Clear
4:36 AM 69.8 °F - 64.4 °F 83% 29.86 in 10.0 mi Calm Calm - N/A   Clear
4:56 AM 69.8 °F - 64.4 °F 83% 29.86 in 10.0 mi Calm Calm - N/A   Clear
5:16 AM 69.8 °F - 66.2 °F 88% 29.85 in 10.0 mi Calm Calm - N/A   Clear
5:36 AM 69.8 °F - 66.2 °F 88% 29.85 in 10.0 mi Calm Calm - N/A   Clear
5:56 AM 69.8 °F - 66.2 °F 88% 29.85 in 10.0 mi Calm Calm - N/A   Clear
6:16 AM 69.8 °F - 66.2 °F 88% 29.84 in 10.0 mi Calm Calm - N/A   Clear
6:36 AM 69.8 °F - 66.2 °F 88% 29.83 in 10.0 mi Calm Calm - N/A   Clear
6:56 AM 69.8 °F - 64.4 °F 83% 29.83 in 10.0 mi South 3.5 mph - N/A   Clear
7:16 AM 71.6 °F - 64.4 °F 78% 29.83 in 10.0 mi South 5.8 mph - N/A   Clear
7:36 AM 73.4 °F - 66.2 °F 78% 29.82 in 10.0 mi South 5.8 mph - N/A   Clear
7:56 AM 75.2 °F - 68.0 °F 78% 29.81 in 10.0 mi South 9.2 mph - N/A   Clear
8:16 AM 77.0 °F - 66.2 °F 69% 29.80 in 10.0 mi South 9.2 mph - N/A   Clear
8:36 AM 77.0 °F - 66.2 °F 69% 29.79 in 10.0 mi SSW 10.4 mph - N/A   Clear
8:56 AM 78.8 °F - 64.4 °F 61% 29.79 in 10.0 mi SSW 10.4 mph - N/A   Clear
9:16 AM 80.6 °F 82.3 °F 64.4 °F 58% 29.79 in 10.0 mi SW 8.1 mph - N/A   Clear
9:36 AM 82.4 °F 83.9 °F 64.4 °F 54% 29.79 in 10.0 mi SW 11.5 mph 18.4 mph N/A   Clear
9:56 AM 86.0 °F 88.2 °F 66.2 °F 51% 29.78 in 10.0 mi SW 12.7 mph 17.3 mph N/A   Clear
10:16 AM 86.0 °F 87.3 °F 64.4 °F 48% 29.78 in 10.0 mi SSW 15.0 mph 19.6 mph N/A   Clear
10:36 AM 86.0 °F 87.3 °F 64.4 °F 48% 29.77 in 10.0 mi SW 16.1 mph 20.7 mph N/A   Clear
10:56 AM 86.0 °F 87.3 °F 64.4 °F 48% 29.76 in 10.0 mi SW 13.8 mph 19.6 mph N/A   Clear
11:16 AM 86.0 °F 86.6 °F 62.6 °F 45% 29.76 in 10.0 mi SW 15.0 mph 25.3 mph N/A   Clear
11:36 AM 86.0 °F 87.3 °F 64.4 °F 48% 29.76 in 10.0 mi SW 12.7 mph 18.4 mph N/A   Clear
11:56 AM 87.8 °F 89.4 °F 64.4 °F 46% 29.75 in 10.0 mi WSW 9.2 mph 21.9 mph N/A   Clear
12:16 PM 87.8 °F 88.5 °F 62.6 °F 43% 29.75 in 10.0 mi WSW 18.4 mph 23.0 mph N/A   Clear
12:36 PM 89.6 °F 91.1 °F 64.4 °F 43% 29.75 in 10.0 mi WSW 16.1 mph 21.9 mph N/A   Clear
12:56 PM 89.6 °F 92.2 °F 66.2 °F 46% 29.75 in 10.0 mi SW 15.0 mph 23.0 mph N/A   Clear
1:16 PM 89.6 °F 92.2 °F 66.2 °F 46% 29.74 in 10.0 mi WSW 11.5 mph - N/A   Clear
1:36 PM 89.6 °F 91.1 °F 64.4 °F 43% 29.74 in 10.0 mi WSW 8.1 mph 18.4 mph N/A   Clear
1:56 PM 89.6 °F 91.1 °F 64.4 °F 43% 29.74 in 10.0 mi WSW 12.7 mph 21.9 mph N/A   Clear
2:16 PM 89.6 °F 91.1 °F 64.4 °F 43% 29.73 in 10.0 mi SW 17.3 mph 23.0 mph N/A   Clear
2:36 PM 89.6 °F 92.2 °F 66.2 °F 46% 29.73 in 10.0 mi WSW 10.4 mph 18.4 mph N/A   Clear
2:56 PM 89.6 °F 91.1 °F 64.4 °F 43% 29.73 in 10.0 mi WSW 17.3 mph 21.9 mph N/A   Clear
3:16 PM 89.6 °F 91.1 °F 64.4 °F 43% 29.73 in 10.0 mi WSW 13.8 mph 20.7 mph N/A   Clear
3:36 PM 89.6 °F 93.4 °F 68.0 °F 49% 29.73 in 10.0 mi WSW 9.2 mph 17.3 mph N/A   Clear
3:56 PM 89.6 °F 92.2 °F 66.2 °F 46% 29.73 in 10.0 mi WSW 10.4 mph 17.3 mph N/A   Clear
4:16 PM 89.6 °F 92.2 °F 66.2 °F 46% 29.73 in 10.0 mi WSW 10.4 mph 23.0 mph N/A   Clear
4:36 PM 89.6 °F 92.2 °F 66.2 °F 46% 29.73 in 10.0 mi WSW 11.5 mph 18.4 mph N/A   Clear
4:56 PM 89.6 °F 92.2 °F 66.2 °F 46% 29.72 in 10.0 mi WSW 11.5 mph - N/A   Clear
5:16 PM 89.6 °F 93.4 °F 68.0 °F 49% 29.72 in 10.0 mi WSW 8.1 mph 16.1 mph N/A   Clear
5:36 PM 89.6 °F 94.7 °F 69.8 °F 52% 29.72 in 10.0 mi WSW 5.8 mph - N/A   Clear
5:56 PM 89.6 °F 93.4 °F 68.0 °F 49% 29.72 in 10.0 mi WSW 9.2 mph - N/A   Clear
6:16 PM 89.6 °F 93.4 °F 68.0 °F 49% 29.72 in 10.0 mi WSW 6.9 mph - N/A   Clear
6:36 PM 89.6 °F 94.7 °F 69.8 °F 52% 29.72 in 10.0 mi WSW 4.6 mph - N/A   Clear
6:56 PM 89.6 °F 94.7 °F 69.8 °F 52% 29.72 in 10.0 mi WSW 8.1 mph - N/A   Clear
7:16 PM 87.8 °F 91.4 °F 68.0 °F 52% 29.72 in 10.0 mi WSW 6.9 mph - N/A   Clear
7:36 PM 86.0 °F 89.4 °F 68.0 °F 55% 29.72 in 10.0 mi WSW 6.9 mph - N/A   Clear
7:56 PM 86.0 °F 89.4 °F 68.0 °F 55% 29.72 in 10.0 mi SW 4.6 mph - N/A   Clear
8:16 PM 86.0 °F 89.4 °F 68.0 °F 55% 29.72 in 10.0 mi WSW 4.6 mph - N/A   Clear
8:36 PM 86.0 °F 90.4 °F 69.8 °F 58% 29.72 in 10.0 mi WSW 4.6 mph - N/A   Clear
8:56 PM 82.4 °F 86.3 °F 69.8 °F 66% 29.73 in 10.0 mi NW 4.6 mph - N/A   Clear
9:16 PM 78.8 °F - 69.8 °F 74% 29.74 in 10.0 mi Calm Calm - N/A   Clear
9:36 PM 78.8 °F - 69.8 °F 74% 29.75 in 10.0 mi Calm Calm - N/A   Clear
9:56 PM 78.8 °F - 69.8 °F 74% 29.75 in 10.0 mi Calm Calm - N/A   Clear
10:16 PM 78.8 °F - 69.8 °F 74% 29.75 in 10.0 mi Calm Calm - N/A   Clear
10:36 PM 75.2 °F - 69.8 °F 83% 29.76 in 10.0 mi Calm Calm - N/A   Clear
10:56 PM 75.2 °F - 69.8 °F 83% 29.76 in 10.0 mi Calm Calm - N/A   Clear
11:16 PM 73.4 °F - 69.8 °F 88% 29.76 in 10.0 mi Calm Calm - N/A   Clear
11:36 PM 73.4 °F - 69.8 °F 88% 29.77 in 10.0 mi Calm Calm - N/A   Clear
11:56 PM 75.2 °F - 71.6 °F 89% 29.77 in 10.0 mi Calm Calm - N/A   Clear